Location: Newark
(48.3831°N, 4.1956°E)
Time: 03:42:23
(UTC+00:00)

Envisat - Pass Details

Date: 12 November 2019
Orbit: 764 x 766 km, 98.1° (Epoch: 07 December)

Event Time Altitude Azimuth Distance (km) Brightness Sun altitude
Rises 16:37:08 0° 135° (SE) 3,224 6.0 -5.2°
Reaches altitude 10° 16:39:39 10° 125° (SE) 2,302 5.2 -5.6°
Maximum altitude 16:44:05 32° 64° (ENE) 1,312 3.7 -6.3°
Drops below altitude 10° 16:48:32 10° 3° (N) 2,315 5.3 -7.0°
Sets 16:51:03 0° 354° (N) 3,245 6.1 -7.4°
